Location: Unspecified
(50.7693°N, 0.0000°E)
Time: 11:37:34
(UTC+00:00)

SR - Pass Details

Date: 02 July 2019
Orbit: 578 x 878 km, 66.7° (Epoch: 16 August)

Event Time Altitude Azimuth Distance (km) Brightness Sun altitude
Rises 05:07:33 0° 300° (WNW) 2,865 ? 9.3°
Reaches altitude 10° 05:11:25 10° 335° (NNW) 2,017 ? 9.8°
Maximum altitude 05:12:55 11° 355° (N) 1,949 ? 10.1°
Drops below altitude 10° 05:14:27 10° 14° (NNE) 2,070 ? 10.3°
Sets 05:18:35 0° 48° (NE) 3,067 ? 10.9°
